Location: Rotheul
(50.2849°N, 11.2349°E)
Time: 02:41:25
(UTC+02:00)

ISS - Pass Details

Date: 16 September 2018
Orbit: 403 x 409 km, 51.6° (Epoch: 24 September)

Event Time Altitude Azimuth Distance (km) Brightness Sun altitude
Exits shadow 05:43:13 19° 240° (WSW) 1,036 -2.4 -11.5°
Maximum altitude 05:44:04 21° 217° (SW) 967 -2.4 -11.4°
Drops below altitude 10° 05:46:37 10° 166° (SSE) 1,454 -1.1 -11.0°
Sets 05:48:59 0° 149° (SSE) 2,308 0.2 -10.7°
